Wind_Speed
23 22 22 22 22 22 23 23 23 23 23 23 22 23 24 25 25 25 26 27 27 28 28 28 29 29 29 30 30 29 29 29 29 30 30 30 30 30 30 29 29 30 30
21 20 20 20 21 22 22 23 22 22 22 23 22 22 22 23 23 23 23 23 24 25 25 26 26 27 28 28 28 28 28 28 28 28 29 29 29 29 28 27 28 28 27
20 19 19 19 20 20 21 20 20 20 20 20 21 21 21 21 22 22 21 22 22 22 23 23 23 24 25 26 26 26 26 25 25 26 26 27 27 27 27 26 27 26 26
18 18 18 18 18 19 19 18 18 18 18 19 18 18 19 19 19 19 20 20 20 20 20 20 20 21 21 22 22 22 22 22 22 23 23 24 24 24 24 24 24 24 24
17 17 17 17 17 17 17 16 16 16 16 16 16 16 16 16 16 17 17 16 16 16 16 16 17 17 18 19 19 18 19 19 19 19 20 20 20 20 20 21 21 20 21
16 16 16 16 16 15 15 14 14 14 14 14 13 13 13 13 13 13 13 13 13 13 13 13 13 13 13 14 14 15 15 16 17 16 16 16 17 17 17 18 17 18 19
14 14 15 15 14 14 14 13 13 13 13 13 12 12 11 11 11 10 10 10 10 10 9 9 9 9 9 10 10 11 11 11 12 11 11 12 13 13 14 14 15 15 15
12 12 12 12 12 11 11 11 11 11 10 10 9 9 9 9 8 8 7 7 7 6 6 5 5 6 6 6 7 7 8 8 8 8 9 9 9 10 11 12 12 12 12
10 10 10 10 10 9 9 9 9 9 9 8 8 8 8 8 7 6 5 3 3 3 3 3 3 3 4 4 5 5 5 5 5 5 6 6 7 7 8 8 9 9 10
8 9 8 8 8 8 8 8 8 8 7 7 6 7 7 6 5 5 4 2 1 0 1 2 2 3 3 4 4 3 3 2 2 3 3 4 4 5 5 5 6 6 7
7 7 7 7 7 7 7 7 6 6 6 6 6 5 5 5 5 4 4 3 3 3 3 4 4 5 5 6 6 5 4 3 2 1 1 1 2 2 2 3 4 5 6
6 6 6 7 7 6 7 6 6 6 6 6 6 5 5 5 6 6 7 6 6 7 7 7 7 8 8 8 8 7 6 5 4 4 3 3 3 3 3 4 3 4 5
6 6 6 6 6 6 6 6 7 7 7 6 6 6 7 7 7 8 8 8 8 9 9 10 10 10 10 9 9 8 8 8 7 6 6 6 5 5 5 5 5 5 6
5 5 6 6 7 7 7 7 8 9 9 8 8 8 8 9 10 10 10 11 11 11 12 12 12 12 11 10 10 10 10 9 9 8 8 8 8 8 8 7 7 7 7
5 5 6 6 7 7 7 8 8 9 10 10 10 10 11 11 12 12 12 12 13 13 14 14 14 14 13 13 13 12 12 11 11 11 11 10 10 10 9 9 9 9 9
6 6 7 7 8 8 8 8 9 9 10 11 11 11 12 12 12 12 12 13 14 15 15 15 14 13 13 13 13 13 13 13 13 12 11 11 11 10 10 10 10 10 11
7 7 8 8 9 9 9 9 10 11 11 12 12 12 12 12 12 12 13 14 15 15 15 14 14 14 14 14 14 13 13 12 12 12 11 11 11 11 11 11 12 12 13
8 8 8 9 9 10 10 10 11 11 12 12 12 12 12 12 12 12 13 14 14 15 15 14 14 14 14 13 13 12 12 11 10 10 11 11 11 11 12 12 13 14 14
8 9 9 10 10 11 11 11 11 11 12 12 12 12 12 12 13 13 13 14 14 14 14 14 14 13 13 12 12 11 11 11 11 11 11 11 11 12 13 14 14 15 16
8 9 10 10 10 10 11 11 11 11 12 12 12 12 12 12 13 13 13 13 13 12 12 12 12 12 11 11 11 11 11 11 11 11 12 12 12 13 14 15 16 17 19
8 8 9 9 9 9 9 10 10 10 10 11 11 11 12 12 12 12 12 12 12 12 12 11 10 10 10 10 10 10 10 11 11 12 12 13 14 14 15 17 18 19 21
7 7 7 7 7 8 8 9 9 9 9 9 10 10 10 10 11 11 11 11 11 10 10 9 9 9 8 8 8 9 10 10 11 12 13 14 15 16 17 19 21 22 23
5 5 6 6 6 7 7 7 7 8 8 8 8 8 8 9 9 8 8 8 7 7 7 7 7 7 7 8 8 9 9 10 11 13 14 15 16 18 19 21 22 24 25
4 4 4 4 5 5 5 5 6 6 6 6 6 6 6 6 6 5 5 5 4 4 5 5 5 6 7 7 8 9 10 12 13 14 16 17 19 20 22 23 25 26 27
2 2 2 2 2 3 3 3 3 3 4 4 4 4 3 3 3 2 2 2 3 3 4 5 5 6 8 9 10 11 12 14 15 16 18 19 21 22 24 25 27 28 30
1 1 1 1 1 1 1 1 1 2 1 1 1 1 1 1 1 1 2 3 4 5 6 7 8 9 10 11 12 13 14 16 17 18 20 21 23 24 26 27 29 30 32
Wind_Direction
293 291 290 290 291 290 289 289 287 285 283 282 284 282 278 276 276 274 271 267 266 266 264 263 263 261 261 261 261 262 261 261 261 261 260 261 263 264 264 265 265 265 266
292 293 293 292 292 292 291 290 286 284 283 286 287 284 282 280 277 275 274 270 269 267 265 264 263 261 260 260 261 261 262 262 262 262 261 262 263 264 264 265 265 266 268
293 295 297 296 295 295 294 290 287 286 286 288 287 285 284 281 278 277 274 272 271 269 266 264 262 260 260 260 259 260 262 262 262 262 261 262 262 263 263 263 266 268 270
293 296 297 299 300 299 297 294 291 291 291 291 289 288 285 283 281 279 278 274 271 269 268 264 263 261 260 260 259 260 261 261 261 261 261 262 262 263 262 261 264 267 269
295 299 299 303 306 307 304 298 297 298 297 296 294 291 289 287 283 280 279 278 275 272 268 264 261 260 259 259 258 258 258 258 259 259 260 260 261 261 260 262 265 267 271
298 300 301 303 306 308 308 304 301 301 301 298 297 297 297 294 291 287 283 278 274 271 269 264 260 257 256 255 254 253 254 255 254 256 256 257 259 261 262 263 266 268 271
300 302 304 305 307 309 310 306 303 301 300 300 300 300 301 300 295 293 289 281 279 277 269 262 258 253 249 251 250 247 246 247 251 252 256 260 264 264 261 262 265 268 271
302 306 308 309 313 314 315 313 312 310 307 306 306 307 306 307 307 300 295 286 285 282 272 264 256 248 243 236 237 243 246 248 248 250 253 258 263 265 266 267 267 271 277
305 310 313 314 314 314 319 323 323 322 319 318 317 316 316 317 318 321 318 308 297 280 259 240 231 218 215 213 220 231 234 231 239 247 256 261 266 269 273 273 274 280 287
316 315 320 324 324 326 331 334 333 329 329 333 334 332 332 337 342 349 353 4 354 246 185 178 175 169 156 161 167 166 177 198 234 241 251 266 277 281 278 277 285 291 294
325 327 328 336 342 345 350 353 353 351 348 353 357 360 7 18 29 39 46 53 66 95 106 111 121 123 124 126 122 118 116 110 103 85 43 335 327 316 312 314 312 308 307
342 350 354 357 0 5 9 11 13 14 14 19 21 27 33 42 55 73 77 82 87 97 102 104 107 110 112 112 109 104 100 91 83 71 59 50 39 33 25 14 3 355 351
2 13 21 24 25 28 32 37 37 43 46 48 52 57 59 62 69 78 81 88 94 100 102 103 106 104 104 104 100 94 87 83 80 77 68 59 56 56 52 42 32 25 18
23 30 33 33 39 46 56 56 53 56 57 61 66 69 68 73 78 83 85 89 95 100 101 102 102 103 100 94 91 87 83 79 77 73 69 65 63 58 53 46 37 28 18
46 49 50 53 57 62 64 63 63 64 66 70 75 75 76 83 86 87 88 89 95 99 102 102 101 97 93 88 87 87 82 77 75 74 72 69 63 56 48 38 30 22 12
62 66 68 68 67 70 72 68 67 68 75 78 80 81 83 86 88 86 86 91 97 99 100 100 98 95 93 90 86 82 78 75 73 72 70 64 57 49 41 31 24 15 8
76 76 75 76 75 76 75 74 74 76 80 81 83 86 88 88 87 89 92 95 97 98 99 98 96 94 90 86 83 80 77 74 71 68 62 55 48 40 33 25 18 10 3
80 80 80 82 81 79 79 80 81 83 84 84 85 87 89 90 89 93 96 99 99 98 96 94 93 90 86 83 80 77 74 71 65 58 48 41 37 30 23 16 11 6 360
78 79 83 87 84 81 82 84 85 85 86 87 86 87 89 91 95 97 96 98 98 96 92 90 89 86 82 79 76 73 69 62 55 48 40 35 30 24 17 12 7 2 358
81 85 88 87 84 83 85 87 88 87 88 90 91 91 92 93 96 96 95 94 93 92 91 88 84 80 75 72 71 66 58 50 43 37 32 28 23 16 10 5 0 356 354
88 89 89 88 87 87 87 89 92 92 91 94 95 95 95 95 95 95 94 94 92 90 88 85 79 73 70 65 61 53 45 38 32 26 21 17 13 8 4 0 356 353 350
96 95 92 91 90 90 91 91 93 95 97 99 99 99 98 96 96 95 94 92 90 87 83 77 71 67 63 55 47 39 32 26 20 14 10 6 3 359 356 354 351 349 347
100 99 96 96 95 95 97 96 95 96 99 102 102 101 101 100 97 93 88 84 83 79 73 66 58 51 43 35 27 19 13 8 4 0 358 355 353 351 349 347 346 345 343
98 98 100 101 102 104 103 100 99 100 102 104 105 104 102 99 95 88 80 72 64 56 47 39 31 24 15 9 4 359 354 350 347 346 346 345 344 344 343 341 341 340 339
114 106 106 110 115 117 113 106 106 111 111 112 111 108 102 97 89 75 57 36 20 9 1 356 352 349 346 343 341 341 340 339 338 338 337 337 337 337 337 337 337 336 336
222 225 215 213 211 202 196 190 176 167 162 157 163 186 219 257 298 319 325 328 329 329 328 327 327 327 327 328 328 329 329 330 331 331 332 332 333 333 334 334 334 334 334
Height
5795 5792 5789 5787 5784 5781 5779 5776 5774 5772 5770 5768 5766 5765 5763 5763 5762 5761 5761 5761 5761 5762 5762 5763 5764 5765 5766 5768 5769 5770 5771 5772 5773 5774 5775 5776 5776 5777 5778 5778 5778 5779 5779
5789 5786 5783 5781 5778 5775 5772 5770 5768 5766 5764 5762 5761 5759 5757 5756 5755 5755 5754 5754 5754 5754 5755 5755 5757 5758 5759 5760 5761 5763 5764 5765 5766 5767 5768 5769 5769 5770 5771 5771 5772 5772 5772
5784 5781 5778 5775 5773 5770 5767 5764 5763 5761 5759 5757 5755 5753 5751 5750 5749 5749 5748 5747 5747 5747 5748 5749 5750 5751 5752 5753 5754 5756 5757 5758 5759 5760 5761 5762 5762 5763 5764 5765 5765 5766 5766
5779 5776 5773 5771 5768 5765 5762 5760 5758 5756 5754 5752 5750 5748 5746 5745 5744 5743 5742 5741 5741 5741 5741 5742 5743 5744 5746 5747 5748 5750 5751 5752 5753 5754 5755 5756 5756 5757 5758 5759 5760 5760 5761
5774 5771 5769 5766 5764 5761 5758 5756 5754 5751 5749 5747 5745 5743 5741 5740 5739 5738 5737 5736 5736 5736 5736 5737 5738 5739 5740 5742 5743 5744 5746 5747 5748 5749 5750 5750 5751 5752 5753 5753 5754 5755 5755
5769 5767 5765 5763 5760 5757 5755 5752 5750 5748 5746 5744 5742 5740 5738 5736 5735 5734 5733 5732 5732 5732 5732 5732 5733 5734 5735 5737 5738 5740 5741 5742 5743 5744 5745 5746 5747 5748 5748 5749 5749 5750 5750
5765 5763 5761 5759 5756 5754 5751 5749 5747 5745 5743 5741 5739 5737 5735 5733 5732 5731 5730 5729 5728 5728 5728 5729 5730 5731 5732 5733 5735 5736 5737 5739 5740 5741 5742 5742 5743 5744 5744 5744 5745 5745 5746
5762 5760 5758 5755 5753 5751 5748 5746 5744 5742 5740 5738 5736 5734 5733 5731 5729 5728 5727 5726 5726 5726 5726 5727 5728 5729 5730 5731 5732 5734 5735 5736 5737 5738 5739 5740 5741 5741 5741 5741 5741 5742 5742
5759 5757 5755 5753 5751 5748 5746 5744 5742 5740 5738 5736 5734 5733 5731 5729 5728 5727 5726 5725 5725 5725 5725 5726 5727 5728 5728 5730 5731 5732 5733 5734 5735 5736 5737 5738 5738 5739 5739 5739 5739 5739 5739
5756 5755 5753 5750 5748 5746 5744 5743 5741 5739 5737 5735 5733 5732 5730 5728 5727 5726 5725 5725 5725 5725 5725 5726 5726 5727 5728 5729 5730 5731 5733 5734 5735 5735 5736 5737 5737 5737 5737 5737 5737 5737 5736
5754 5753 5751 5749 5747 5745 5743 5742 5740 5738 5737 5735 5733 5732 5730 5728 5727 5726 5726 5725 5725 5726 5726 5727 5727 5728 5729 5730 5731 5732 5733 5734 5735 5735 5736 5736 5736 5736 5735 5735 5735 5735 5734
5753 5751 5749 5748 5746 5745 5743 5742 5740 5738 5737 5735 5734 5732 5731 5729 5728 5727 5727 5727 5727 5728 5728 5728 5729 5730 5731 5732 5733 5733 5734 5735 5735 5736 5736 5736 5736 5735 5735 5734 5734 5733 5733
5752 5751 5749 5748 5746 5745 5743 5742 5740 5739 5737 5736 5735 5733 5732 5731 5730 5730 5730 5729 5729 5730 5730 5731 5731 5732 5733 5734 5735 5735 5736 5736 5736 5736 5736 5736 5736 5735 5735 5734 5733 5733 5732
5752 5751 5750 5748 5747 5746 5744 5743 5742 5740 5739 5738 5737 5735 5735 5734 5733 5733 5733 5732 5732 5733 5733 5734 5734 5735 5736 5737 5737 5737 5738 5738 5738 5737 5737 5737 5736 5736 5735 5734 5733 5733 5732
5753 5752 5750 5749 5748 5747 5746 5745 5744 5743 5741 5740 5739 5738 5737 5737 5737 5736 5736 5736 5736 5736 5736 5737 5738 5738 5739 5739 5740 5740 5740 5740 5739 5739 5739 5738 5737 5737 5736 5735 5734 5732 5731
5754 5753 5752 5751 5750 5749 5748 5747 5746 5745 5744 5743 5742 5741 5741 5741 5740 5740 5740 5740 5739 5740 5740 5741 5741 5742 5742 5742 5743 5742 5742 5742 5742 5741 5741 5740 5739 5738 5737 5735 5734 5732 5730
5756 5755 5754 5753 5752 5751 5750 5749 5748 5748 5747 5746 5745 5745 5745 5745 5745 5744 5744 5744 5744 5744 5744 5745 5745 5745 5745 5746 5745 5745 5745 5745 5744 5743 5742 5741 5740 5739 5737 5736 5734 5732 5729
5757 5757 5756 5755 5754 5753 5752 5752 5751 5751 5750 5750 5749 5749 5748 5748 5748 5748 5748 5748 5748 5748 5749 5749 5749 5749 5749 5749 5748 5748 5747 5747 5746 5745 5744 5742 5741 5739 5737 5735 5733 5731 5728
5760 5759 5758 5757 5757 5756 5755 5755 5755 5754 5754 5753 5753 5753 5752 5752 5752 5752 5752 5752 5752 5752 5752 5752 5753 5752 5752 5752 5751 5751 5750 5749 5748 5746 5745 5743 5741 5740 5738 5735 5733 5730 5727
5762 5762 5761 5761 5760 5759 5759 5758 5758 5757 5757 5757 5757 5756 5756 5756 5756 5756 5756 5756 5756 5756 5756 5756 5756 5756 5755 5754 5754 5753 5752 5751 5749 5748 5746 5744 5742 5740 5737 5735 5732 5729 5725
5765 5764 5764 5763 5763 5762 5762 5761 5761 5761 5760 5760 5760 5760 5760 5760 5760 5760 5760 5760 5759 5759 5759 5759 5759 5758 5757 5757 5756 5755 5753 5752 5750 5748 5746 5744 5742 5739 5737 5734 5730 5726 5723
5767 5766 5766 5766 5766 5765 5765 5764 5764 5764 5764 5763 5763 5763 5763 5763 5763 5763 5763 5763 5763 5762 5762 5762 5761 5760 5759 5758 5757 5756 5754 5753 5751 5749 5747 5744 5741 5739 5735 5732 5728 5724 5720
5769 5769 5768 5768 5768 5767 5767 5767 5767 5767 5766 5766 5766 5766 5766 5766 5766 5766 5766 5766 5765 5765 5764 5763 5763 5762 5760 5759 5758 5756 5755 5753 5751 5749 5746 5743 5740 5737 5733 5730 5725 5721 5717
5771 5770 5770 5770 5770 5769 5769 5769 5769 5769 5769 5768 5768 5768 5768 5768 5768 5768 5768 5767 5767 5766 5765 5764 5763 5762 5761 5759 5758 5756 5754 5752 5750 5747 5744 5741 5738 5734 5730 5726 5722 5717 5713
5772 5771 5771 5771 5771 5771 5771 5770 5770 5770 5770 5770 5770 5770 5770 5770 5769 5769 5768 5768 5767 5766 5765 5764 5763 5762 5760 5759 5757 5755 5753 5751 5748 5745 5742 5738 5735 5731 5727 5722 5718 5713 5708
5772 5772 5772 5772 5771 5771 5771 5771 5771 5771 5771 5771 5771 5770 5770 5770 5769 5769 5768 5767 5767 5766 5765 5763 5762 5761 5759 5757 5755 5753 5751 5748 5745 5742 5738 5735 5731 5727 5722 5718 5713 5707 5702